www.pogodaiklimat.ru

Погода и климат >> Архив погоды >> Пакистан >> Джанг


ПОГОДА в Джанге

  • Прогноз погоды в Джанге
  • Монитор погоды в Джанге

АРХИВ ПОГОДЫ в Джанге

Время (UTC), дата Ветер
(напр.,м/с)
 
Видим.   Явления Облачность Т
(С)
Тd
(С)
f
(%)
Тe
(С)
Тes
(С)
Комфортность P
(гПа)
Po
(гПа)
Тmin
(С)
Tmax
(С)
R
(мм)
R24
(мм)
S
(см)
21 16.07 ЮВ 1 4000 м дым 4/0
[Ac trans]
+26.0 +23.1 84 +35 +35 очень
душно
1000.1 982.3
00 17.07 штиль 0 4000 м дым 6/3 1200 м
[Sc Ac trans]
+25.5 +23.3 88 +34 +34 очень
душно
1000.5 982.7
06 17.07 ЮВ 1 10 км ясно +32.5 +24.8 64 +46 +69 опасность
перегрева
1002.8 985.4
09 17.07 В 1 10 км ясно +35.0 +25.3 57 +49 +70 опасность
перегрева
1000.4 983.2
12 17.07 ЮВ 1 4000 м дым ясно +35.5 +25.9 58 +51 +56 опасность
перегрева
998.7 981.7 +36.5
15 17.07 штиль 0 4000 м дым ясно +32.5 +24.8 64 +46 +46 опасность
перегрева
999.6 982.4
18 17.07 ЮВ 1 4000 м дым ясно +30.5 +24.9 72 +44 +44 опасность
перегрева
1000.7 983.2
21 17.07 ЮВ 1 4000 м дым 3/0
[Ac trans]
+29.5 +24.5 75 +42 +42 опасность
перегрева
999.8 982.3
00 18.07 Ю 1 4000 м дым 5/0
[Ac trans]
+28.5 +25.0 81 +41 +41 опасность
перегрева
999.5 981.9
03 18.07 ЮВ 2 10 км ясно +31.5 +25.2 69 +45 +52 опасность
перегрева
1001.1 983.4 +26.8
06 18.07 ЮВ 1 10 км ясно +35.5 +25.9 58 +51 +74 опасность
перегрева
1000.5 983.3
09 18.07 ЮВ 1 10 км в посл. час гроза 9/5 1200 м
[Sc Ac As]
+30.0 +26.5 82 +46 +51 опасность
перегрева
999.3 981.6 3
12 18.07 ЮВ 1 4000 м в посл. час гроза 10/5 1200 м
[Sc As op]
+27.5 +22.4 74 +36 +37 очень
душно
999.8 982.0 +37.4
15 18.07 штиль 0 4000 м дым {гроза} 9/4 1200 м
[Sc Ac trans]
+27.0 +23.4 81 +37 +37 очень
душно
999.9 982.1
18 18.07 штиль 0 4000 м дым ясно +26.5 +23.6 84 +36 +36 очень
душно
1001.6 983.6
21 18.07 штиль 0 4000 м дым 4/0
[Ac trans]
+26.5 +23.6 84 +36 +36 очень
душно
1000.8 982.8
00 19.07 штиль 0 4000 м дым 9/4 1200 м
[Sc Ac trans]
+26.0 +23.8 88 +36 +36 очень
душно
1001.1 983.1
03 19.07 штиль 0 10 км 4/0
[Ac trans]
+29.0 +24.8 78 +41 +48 опасность
перегрева
1002.1 984.3 +25.6
06 19.07 штиль 0 4000 м 4/0
[Ac trans]
+34.5 +25.5 60 +49 +70 опасность
перегрева
1002.2 985.0
09 19.07 Ю 1 4000 м 4/0
[Ac trans]
+36.5 +25.5 53 +51 +66 опасность
перегрева
999.4 982.4
15 19.07 СЗ 2 4000 м дым {гроза} 9/4 1200 м
[Sc Ac As]
+28.5 +24.2 78 +40 +40 очень
душно
1000.9 983.3
18 19.07 Ю 1 4000 м дым 3/0
[Ac trans]
+27.0 +24.1 84 +37 +37 очень
душно
1001.1 983.5
21 19.07 штиль 0 4000 м дым ясно +26.5 +24.4 88 +37 +37 очень
душно
1002.0 984.2
00 20.07 штиль 0 4000 м дым ясно +26.0 +24.6 92 +37 +37 очень
душно
1002.4 984.6
03 20.07 штиль 0 4000 м дым ясно +29.0 +26.2 85 +44 +53 опасность
перегрева
1003.9 986.3 +25.5
06 20.07 штиль 0 10 км 3/0
[Ac trans]
+35.0 +25.3 57 +49 +71 опасность
перегрева
1003.2 986.0
09 20.07 10 км н/о +36.5 +25.5 53 +51 +64 опасность
перегрева
1001.8 984.8
12 20.07 штиль 0 10 км 3/3 1200 м
[Sc diur, vesp]
+36.5 +24.6 51 +49 +53 опасность
перегрева
1009.1 982.1 +38.0
15 20.07 штиль 0 4000 м дым ясно +33.5 +26.6 67 +50 +50 опасность
перегрева
1000.5 983.3
18 20.07 штиль 0 4000 м дым ясно +31.5 +26.0 73 +47 +47 опасность
перегрева
1000.8 983.3
21 20.07 штиль 0 4000 м дым ясно +30.0 +25.1 75 +43 +43 опасность
перегрева
1000.5 983.0
00 21.07 штиль 0 4000 м дым ясно +29.0 +26.2 85 +44 +44 опасность
перегрева
1000.8 983.2
03 21.07 ЮВ 1 4000 м дым 3/0
[Ac trans]
+30.5 +26.4 79 +47 +53 опасность
перегрева
1002.7 985.0 +28.0
06 21.07 штиль 0 4000 м туман на расстоянии 6/0
[Ac trans]
+34.0 +27.2 68 +53 +70 опасность
перегрева
1003.8 986.4
09 21.07 В 1 4000 м 3/3 1200 м
[Sc]
+37.0 +26.0 53 +52 +67 опасность
перегрева
1001.7 984.7
12 21.07 Ю 1 4000 м дым ясно +36.5 +25.5 53 +51 +55 опасность
перегрева
998.9 981.9 +38.0
15 21.07 штиль 0 4000 м дым ясно +33.5 +26.6 67 +50 +50 опасность
перегрева
999.9 982.7
18 21.07 штиль 0 4000 м дым ясно +32.0 +26.5 73 +49 +49 опасность
перегрева
999.8 982.3
21 21.07 штиль 0 4000 м дым ясно +30.0 +25.1 75 +43 +43 опасность
перегрева
998.8 981.3
00 22.07 штиль 0 4000 м дым ясно +29.5 +26.7 85 +46 +46 опасность
перегрева
999.2 981.7
03 22.07 штиль 0 4000 м дым ясно +32.5 +27.8 76 +52 +61 опасность
перегрева
1001.6 984.2 +28.0
06 22.07 СВ 1 10 км ясно +37.5 +25.8 51 +52 +75 опасность
перегрева
1001.1 983.9
09 22.07 Ю 3 10 км в посл. час гроза 5/0
[Ac As]
+36.0 +23.2 48 +46 +56 опасность
перегрева
998.8 981.6
12 22.07 ЮВ 1 10 км 3/0
[Ac trans]
+37.0 +24.4 49 +49 +53 опасность
перегрева
996.9 979.7 +38.3
15 22.07 штиль 0 4000 м дым ясно +34.0 +24.1 56 +46 +46 опасность
перегрева
997.1 979.9
18 22.07 штиль 0 4000 м дым ясно +31.5 +25.2 69 +45 +45 опасность
перегрева
999.2 981.5
21 22.07 штиль 0 4000 м дым ясно +30.0 +25.8 78 +45 +45 опасность
перегрева
997.5 980.0
00 23.07 штиль 0 4000 м дым ясно +29.0 +26.2 85 +44 +44 опасность
перегрева
999.1 981.3
03 23.07 штиль 0 10 км ясно +33.0 +26.1 67 +49 +58 опасность
перегрева
1000.6 983.2 +28.6
06 23.07 штиль 0 10 км ясно +37.0 +25.2 51 +51 +77 опасность
перегрева
999.5 982.5
09 23.07 4000 м мгла 1/0
[Ac trans]
+38.5 +23.8 43 997.9 981.1
12 23.07 ЮВ 1 4000 м дым 4/0
[Ac trans]
+37.5 +25.0 49 +51 +54 опасность
перегрева
995.7 978.7 +40.2
15 23.07 штиль 0 4000 м дым ясно +35.0 +24.5 55 +48 +48 опасность
перегрева
996.4 979.2

 

Местоположение метеостанции Джанг (Пакистан): широта 31.27 долгота 72.32 высота над уровнем моря 153 м.

В архиве по умолчанию представлена погода в Джанге за последнюю неделю. Архивные данные за месяц целиком и за предыдущие месяцы, начиная с января 2011 года, Вы можете получить, выбрав интересующий диапазон дат из раскрывающегося списка и нажав кнопку "Ввод!".


*Определитесь, кто Вы:
робот инопланетянин человек

Внимание! Время в таблицах - всемирное. Для получения местного времени необходимо прибавить поправку, которая равна 5 ч.

Смотрите также архив погоды в соседних городах и на ближайших метеорологических станциях:

Погода в Тоба Тек Сингх (Пакистан) (35 км)
Погода на Авиабазе Raifiqui (Пакистан) (56 км)
Погода в Фейсалабаде (Пакистан) (76 км)
Погода в Нур Пур Тал (Пакистан) (78 км)
Погода в Саргодхе (Пакистан) (93 км)
Погода в Саргодхе (Пакистан) (93 км)
Погода в Сахивале (Пакистан) (95 км)
Погода в Ханевале (Пакистан) (115 км)
Погода в Окаре (Пакистан) (118 км)
Погода в Бхаккаре (Пакистан) (125 км)

Пояснения к столбцам:

Ветер - указаны скорость ветра в м/с - средняя за 10 мин, порывы в срок и между сроками (в фигурных скобках) и направление, откуда дует ветер: С - северный, СВ - северо-восточный, В - восточный, ЮВ - юго-восточный, Ю - южный, ЮЗ - юго-западный, З - западный, СЗ - северо-западный.
Видимость - горизонтальная дальность видимости в метрах или километрах. При видимости от 1 до 10 км при отсутствии осадков обычно наблюдается дымка, при ухудшении видимости до 1 км и менее - туман. В сухую погоду видимость может ухудшаться дымом, пылью или мглою.
Явления - указаны атмосферные явления, наблюдавшиеся в срок или в последний час перед сроком; фигурными скобками обозначены явления, наблюдавшиеся между сроками (за 1-3 часа до срока); квадратными скобками обозначены град или гололедные отложения с указанием их диаметра в мм.
Облачность - указаны через наклонную черту общая и нижняя облачность в баллах и высота нижней границы облаков в метрах; квадратными скобками обозначены формы облаков: Ci - перистые, Cs - перисто-слоистые, Cc - перисто-кучевые, Ac - высококучевые, As - высокослоистые, Sc - слоисто-кучевые, Ns - слоисто-дождевые, Cu - кучевые, Cb - кучево-дождевые. Подробнее классификацию облаков см. в Атласе облаков (PDF).
T - Температура воздуха - температура, измеренная на высоте 2 м над землей.
Td - Температура точки росы - температура, при понижении до которой содержащийся в воздухе водяной пар достигнет насыщения.
f - Относительная влажность воздуха - влажноcть воздуха, измеренная на высоте 2 м над землей.
Te - Эффективная температура - температура, которую ощущает одетый по сезону человек в тени. Характеристика душности погоды. При расчете учитывается влияние влажности воздуха и скорости ветра на теплоощущения человека.
Tes - Эффективная температура на солнце - температура, которую ощущает человек, с поправкой на солнечный нагрев. Характеристика знойности погоды. Зависит от высоты солнца над горизонтом, облачности и скорости ветра. Ночью, в пасмурную погоду, а также при ветре 12 м/с и более поправка равна нулю.
P - Атмосферное давление - приведенное к уровню моря атмосферное давление.
Po - Атмосферное давление - измеренное на уровне метеостанции атмосферное давление.
Tmin - Минимальная температура - минимум температуры воздуха на высоте 2 м над землей.
Tmax - Максимальная температура - максимум температуры воздуха на высоте 2 м над землей.
R - Количество осадков - Количество выпавших осадков за период времени, мм. При наведении курсора мыши на число - период времени, за который выпало указанное количество осадков.
R24 - Количество осадков - Количество выпавших осадков за 24 часа, мм.
S - Снежный покров - Высота снежного покрова, см. При наведении курсора мыши на число - состояние снежного покрова и степень покрытия местности в баллах.